Weather History for North Adams, MA

Change the Weather History Date:

Wednesday, December 5, 2012

  Actual Average Record
Temperature  
Mean Temperature 44 °F -  
Max Temperature 60 °F 38 °F 63 °F (2001)
Min Temperature 27 °F 23 °F 5 °F (2003)
Degree Days  
Heating Degree Days 21    
Moisture  
Dew Point 30 °F    
Average Humidity 64    
Maximum Humidity 93    
Minimum Humidity 45    
Precipitation  
Precipitation 0.21 in - - ()
Sea Level Pressure  
Sea Level Pressure 30.02 in    
Wind  
Wind Speed 8 mph (West)    
Max Wind Speed 16 mph    
Max Gust Speed 29 mph    
Visibility 9 miles    
Events Rain    
Averages and records for this station are not official NWS values.
T = Trace of Precipitation, MM = Missing Value Source: NWS Daily Summary

Daily Weather History Graph

Daily Weather History Graph

Search for Another Location

Airport:

Trip Planner

Search our weather history database for the weather conditions in past years. The results will help you decide how hot, cold, wet, or windy it might be!

Date:

Astronomy

Dec. 05, 2012 Rise Set
Actual Time 7:07 AM EST 4:19 PM EST
Civil Twilight 6:36 AM EST 4:50 PM EST
Nautical Twilight 6:00 AM EST 5:26 PM EST
Astronomical Twilight 5:26 AM EST 6:00 PM EST
Moon 11:12 PM EST (12/5) 11:23 AM EST (12/5)
Length of Visible Light 10h 14m
Length of Day
9h 11m
Waning Gibbous, 60% of the Moon is Illuminated
Dec 5
Waning Gibbous
Dec 6
Last Quarter
Dec 13
New
Dec 20
First Quarter
Dec 28
Full

Hourly Weather History & Observations

Time (EST) Temp. Windchill Dew Point Humidity Pressure Visibility Wind Dir Wind Speed Gust Speed Precip Events Conditions
12:52 AM 60.1 °F - 48.0 °F 64% 29.87 in 10.0 mi Variable 5.8 mph 17.3 mph N/A   Overcast
1:34 AM 57.2 °F - 48.2 °F 72% 29.86 in 6.0 mi Variable 4.6 mph 18.4 mph 0.01 in Rain Light Rain
1:52 AM 55.9 °F - 51.1 °F 84% 29.87 in 7.0 mi WNW 4.6 mph - 0.01 in Rain Light Rain
2:52 AM 50.0 °F - 44.1 °F 80% 29.93 in 8.0 mi West 11.5 mph 26.5 mph 0.02 in Rain Light Rain
3:52 AM 48.0 °F - 45.0 °F 89% 29.92 in 5.0 mi West 5.8 mph - 0.04 in Rain Light Rain
4:26 AM 46.4 °F 42.9 °F 44.6 °F 93% 29.92 in 3.0 mi West 6.9 mph - 0.07 in Rain Rain
4:41 AM 46.4 °F 41.1 °F 42.8 °F 87% 29.92 in 3.0 mi WSW 11.5 mph - 0.12 in Rain Rain
4:52 AM 46.9 °F - 43.0 °F 86% 29.94 in 6.0 mi West 8.1 mph - 0.13 in Rain Light Rain
5:52 AM 46.9 °F - 39.9 °F 77% 29.94 in 10.0 mi WSW 6.9 mph - 0.01 in   Overcast
6:52 AM 46.0 °F 41.9 °F 37.9 °F 73% 29.96 in 10.0 mi WNW 8.1 mph - N/A   Overcast
7:52 AM 45.0 °F 42.6 °F 36.0 °F 71% 29.98 in 10.0 mi Variable 4.6 mph - N/A   Overcast
9:47 AM 44.6 °F 39.2 °F 33.8 °F 66% 29.99 in 10.0 mi West 10.4 mph - N/A   Overcast
9:52 AM 45.0 °F 41.2 °F 33.1 °F 63% 30.00 in 10.0 mi West 6.9 mph - N/A   Overcast
10:52 AM 45.0 °F 39.7 °F 33.1 °F 63% 30.00 in 10.0 mi West 10.4 mph 21.9 mph N/A   Overcast
11:52 AM 44.1 °F 38.1 °F 32.0 °F 63% 29.98 in 10.0 mi West 11.5 mph 19.6 mph N/A   Overcast
12:35 PM 42.8 °F 35.1 °F 28.4 °F 57% 30.00 in 10.0 mi West 16.1 mph 24.2 mph N/A   Overcast
12:52 PM 41.0 °F 32.8 °F 26.1 °F 55% 30.01 in 10.0 mi West 16.1 mph 23.0 mph N/A   Overcast
1:52 PM 37.9 °F 30.0 °F 21.9 °F 53% 30.04 in 10.0 mi West 12.7 mph 24.2 mph N/A   Overcast
2:52 PM 37.0 °F 28.9 °F 21.9 °F 54% 30.04 in 10.0 mi West 12.7 mph 20.7 mph N/A   Overcast
3:52 PM 37.0 °F 28.1 °F 21.0 °F 52% 30.06 in 10.0 mi West 15.0 mph 28.8 mph N/A   Overcast
4:52 PM 36.0 °F 26.7 °F 19.9 °F 52% 30.08 in 10.0 mi West 15.0 mph 26.5 mph N/A   Overcast
5:52 PM 35.1 °F 27.9 °F 16.0 °F 46% 30.11 in 10.0 mi West 9.2 mph 24.2 mph N/A   Overcast
6:52 PM 34.0 °F 24.2 °F 15.1 °F 46% 30.13 in 10.0 mi West 15.0 mph 24.2 mph N/A   Overcast
7:52 PM 33.1 °F 26.1 °F 18.0 °F 54% 30.16 in 10.0 mi NW 8.1 mph 19.6 mph N/A   Overcast
8:52 PM 30.9 °F 22.8 °F 14.0 °F 50% 30.19 in 10.0 mi NNW 9.2 mph - N/A   Overcast
9:52 PM 28.9 °F 21.9 °F 10.0 °F 45% 30.20 in 10.0 mi West 6.9 mph 19.6 mph N/A   Mostly Cloudy
10:52 PM 28.0 °F 19.3 °F 10.0 °F 47% 30.22 in 10.0 mi West 9.2 mph 17.3 mph N/A   Clear
11:52 PM 27.0 °F 20.5 °F 10.9 °F 51% 30.23 in 10.0 mi West 5.8 mph - N/A   Clear